This is the latest recevied weather packets stored in our database for station/object W5ITZ. If no packets are shown the sender has not sent any weather packets the latest 10 day(s).
| Time | Temp. | Humidity | Pressure | Rain* | Wind** | Luminosity | Snow |
|---|---|---|---|---|---|---|---|
| 1777665272 | 18.33° C | 96% | 1008.2 hPa | 21.59 mm | - | 14 W/m² | - |
| 1777664967 | 18.33° C | 95% | 1007.4 hPa | 38.35 mm | - | 17 W/m² | - |
| 1777664664 | 18.33° C | 95% | 1009.9 hPa | 24.64 mm | - | 6 W/m² | - |
| 1777664360 | 18.33° C | 95% | 1009.8 hPa | 9.65 mm | - | 4 W/m² | - |
| 1777664058 | 18.33° C | 95% | 1008.4 hPa | 4.32 mm | - | 2 W/m² | - |
| 1777663756 | 18.33° C | 95% | 1007.2 hPa | 1.27 mm | - | 5 W/m² | - |
| 1777663453 | 18.33° C | 95% | 1006.5 hPa | 0 mm | - | 10 W/m² | - |
| 1777663150 | 18.33° C | 95% | 1005.4 hPa | 0 mm | - | 13 W/m² | - |
| 1777662847 | 18.33° C | 95% | 1006 hPa | 0 mm | - | 15 W/m² | - |
| 1777662544 | 18.33° C | 95% | 1007.2 hPa | 0 mm | - | 16 W/m² | - |
| 1777662240 | 18.33° C | 95% | 1007 hPa | 0 mm | - | 14 W/m² | - |
| 1777661934 | 18.33° C | 95% | 1007.2 hPa | 0 mm | - | 19 W/m² | - |
| 1777661631 | 18.33° C | 95% | 1007.3 hPa | 0 mm | - | 30 W/m² | - |
| 1777661327 | 18.33° C | 95% | 1007.2 hPa | 0 mm | - | 38 W/m² | - |
| 1777661024 | 18.33° C | 95% | 1008.1 hPa | 0 mm | - | 45 W/m² | - |
| 1777660719 | 18.33° C | 96% | 1008.5 hPa | 0 mm | - | 26 W/m² | - |
| 1777660417 | 18.33° C | 95% | 1008.8 hPa | 0 mm | - | 26 W/m² | - |
| 1777660112 | 17.78° C | 95% | 1009 hPa | 0 mm | - | 21 W/m² | - |
| 1777659809 | 17.78° C | 95% | 1008.7 hPa | 1.78 mm | - | 54 W/m² | - |
| 1777659506 | 17.78° C | 95% | 1009 hPa | 3.05 mm | - | 65 W/m² | - |
| 1777659203 | 17.78° C | 95% | 1009.3 hPa | 3.05 mm | - | 57 W/m² | - |
| 1777658901 | 17.78° C | 95% | 1009.6 hPa | 1.78 mm | - | 28 W/m² | - |
| 1777658596 | 17.78° C | 95% | 1010.1 hPa | 1.27 mm | - | 13 W/m² | - |
| 1777658294 | 17.78° C | 95% | 1009.4 hPa | 4.32 mm | - | 17 W/m² | - |
| 1777657991 | 17.78° C | 95% | 1009 hPa | 6.6 mm | - | 47 W/m² | - |
* Rain latest hour (hover to see other rain measurements)
** Current wind speed in m/s (hover to see current wind gust speed)